Location: Hurecourt
(47.9030°N, 6.0653°E)
Time: 04:29:41
(UTC+00:00)

NOSS 2-1 (C) - Pass Details

Date: 14 July 2020
Orbit: 443 x 1759 km, 63.3° (Epoch: 29 July)

Event Time Altitude Azimuth Distance (km) Brightness Sun altitude
Rises 00:25:05 0° 319° (NW) 2,997 7.6 -19.8°
Reaches altitude 10° 00:27:05 10° 319° (NW) 2,220 6.9 -19.7°
Maximum altitude 00:32:12 88° 232° (SW) 912 4.3 -19.5°
Enters shadow 00:39:09 11° 143° (SE) 2,994 6.7 -19.3°
